Location: Newark
(36.0797°N, 3.9744°E)
Time: 20:17:16
(UTC+00:00)

Vanguard 2 - Pass Details

Date: 14 December 2019
Orbit: 553 x 2938 km, 32.9° (Epoch: 28 January)

Event Time Altitude Azimuth Distance (km) Brightness Sun altitude
Exits shadow 00:57:30 30° 89° (E) 4,304 11.2 -68.6°
Drops below altitude 10° 01:04:28 10° 84° (E) 5,740 12.1 -67.4°
Sets 01:08:48 0° 83° (E) 6,668 12.6 -66.6°
